TimeMST,TemperatureF,Dew PointF,Humidity,Sea Level PressureIn,VisibilityMPH,Wind Direction,Wind SpeedMPH,Gust SpeedMPH,PrecipitationIn,Events,Conditions,WindDirDegrees,DateUTC
12:19 AM,32.0,8.6,38,30.54,10.0,NE,10.4,-,N/A,,Clear,50,2012-11-06 07:19:00
12:39 AM,32.0,8.6,38,30.54,10.0,NE,10.4,-,N/A,,Clear,40,2012-11-06 07:39:00
12:59 AM,32.0,8.6,38,30.54,10.0,NNE,10.4,-,N/A,,Clear,30,2012-11-06 07:59:00
1:19 AM,32.0,8.6,38,30.54,10.0,NE,5.8,-,N/A,,Clear,40,2012-11-06 08:19:00
1:39 AM,33.8,5.0,30,30.54,10.0,NNE,10.4,17.3,N/A,,Clear,30,2012-11-06 08:39:00
1:59 AM,33.8,6.8,32,30.54,10.0,ENE,9.2,-,N/A,,Clear,70,2012-11-06 08:59:00
2:19 AM,32.0,8.6,38,30.54,10.0,ENE,5.8,-,N/A,,Clear,60,2012-11-06 09:19:00
2:39 AM,32.0,6.8,35,30.54,-9999.0,NE,8.1,-,N/A,,Unknown,40,2012-11-06 09:39:00
2:59 AM,32.0,8.6,38,30.53,10.0,NNE,10.4,16.1,N/A,,Clear,20,2012-11-06 09:59:00
3:19 AM,33.8,6.8,32,30.53,10.0,NNE,6.9,-,N/A,,Clear,20,2012-11-06 10:19:00
3:39 AM,33.8,6.8,32,30.52,10.0,North,4.6,-,N/A,,Clear,350,2012-11-06 10:39:00
3:59 AM,33.8,6.8,32,30.52,10.0,Calm,Calm,-,N/A,,Clear,0,2012-11-06 10:59:00
4:19 AM,35.6,6.8,30,30.53,10.0,North,10.4,18.4,N/A,,Clear,10,2012-11-06 11:19:00
4:39 AM,33.8,6.8,32,30.53,10.0,NNE,9.2,17.3,N/A,,Clear,30,2012-11-06 11:39:00
4:59 AM,33.8,6.8,32,30.53,10.0,NE,8.1,-,N/A,,Clear,50,2012-11-06 11:59:00
5:19 AM,33.8,6.8,32,30.54,10.0,East,5.8,-,N/A,,Clear,90,2012-11-06 12:19:00
5:39 AM,33.8,6.8,32,30.54,10.0,ENE,8.1,-,N/A,,Clear,60,2012-11-06 12:39:00
5:59 AM,32.0,6.8,35,30.54,10.0,NE,8.1,-,N/A,,Clear,50,2012-11-06 12:59:00
6:19 AM,32.0,8.6,38,30.54,10.0,NE,11.5,16.1,N/A,,Clear,50,2012-11-06 13:19:00
6:39 AM,32.0,6.8,35,30.54,10.0,NE,13.8,-,N/A,,Clear,40,2012-11-06 13:39:00
6:59 AM,32.0,6.8,35,30.54,10.0,NE,11.5,-,N/A,,Clear,40,2012-11-06 13:59:00
7:19 AM,33.8,6.8,32,30.55,10.0,NE,9.2,-,N/A,,Clear,40,2012-11-06 14:19:00
7:39 AM,35.6,6.8,30,30.56,10.0,NE,4.6,-,N/A,,Clear,40,2012-11-06 14:39:00
7:59 AM,37.4,6.8,28,30.57,10.0,NNE,6.9,-,N/A,,Clear,30,2012-11-06 14:59:00
8:19 AM,39.2,6.8,26,30.57,10.0,Calm,Calm,-,N/A,,Clear,0,2012-11-06 15:19:00
8:39 AM,41.0,8.6,26,30.57,10.0,Calm,Calm,-,N/A,,Clear,0,2012-11-06 15:39:00
8:59 AM,41.0,8.6,26,30.57,10.0,WSW,3.5,-,N/A,,Clear,240,2012-11-06 15:59:00
9:19 AM,42.8,8.6,25,30.57,10.0,Calm,Calm,-,N/A,,Clear,0,2012-11-06 16:19:00
9:39 AM,44.6,10.4,25,30.57,10.0,Calm,Calm,-,N/A,,Clear,0,2012-11-06 16:39:00
9:59 AM,44.6,8.6,23,30.57,10.0,Calm,Calm,-,N/A,,Clear,0,2012-11-06 16:59:00
10:19 AM,44.6,10.4,25,30.57,10.0,South,4.6,-,N/A,,Clear,190,2012-11-06 17:19:00
10:39 AM,44.6,8.6,23,30.57,10.0,South,4.6,-,N/A,,Clear,190,2012-11-06 17:39:00
10:59 AM,46.4,10.4,23,30.57,10.0,WSW,3.5,-,N/A,,Clear,240,2012-11-06 17:59:00
11:19 AM,46.4,10.4,23,30.57,10.0,Calm,Calm,-,N/A,,Clear,0,2012-11-06 18:19:00
11:39 AM,46.4,10.4,23,30.57,10.0,SSW,3.5,-,N/A,,Clear,200,2012-11-06 18:39:00
11:59 AM,46.4,10.4,23,30.55,10.0,NE,3.5,-,N/A,,Clear,50,2012-11-06 18:59:00
12:19 PM,46.4,12.2,25,30.54,10.0,SW,10.4,-,N/A,,Clear,220,2012-11-06 19:19:00
12:39 PM,46.4,12.2,25,30.54,10.0,SSW,13.8,-,N/A,,Clear,200,2012-11-06 19:39:00
12:59 PM,44.6,12.2,27,30.54,10.0,SSW,6.9,18.4,N/A,,Clear,210,2012-11-06 19:59:00
1:19 PM,46.4,12.2,25,30.54,10.0,SW,4.6,17.3,N/A,,Clear,220,2012-11-06 20:19:00
1:39 PM,46.4,12.2,25,30.53,10.0,WSW,11.5,17.3,N/A,,Clear,240,2012-11-06 20:39:00
1:59 PM,46.4,10.4,23,30.53,10.0,WSW,11.5,16.1,N/A,,Clear,240,2012-11-06 20:59:00
2:19 PM,46.4,10.4,23,30.53,10.0,SW,10.4,16.1,N/A,,Clear,230,2012-11-06 21:19:00
2:39 PM,46.4,10.4,23,30.53,10.0,SW,5.8,18.4,N/A,,Clear,220,2012-11-06 21:39:00
2:59 PM,46.4,10.4,23,30.54,10.0,SW,13.8,19.6,N/A,,Clear,220,2012-11-06 21:59:00
3:19 PM,44.6,12.2,27,30.54,10.0,SSW,9.2,19.6,N/A,,Clear,210,2012-11-06 22:19:00
3:39 PM,44.6,12.2,27,30.54,10.0,SSW,13.8,-,N/A,,Clear,210,2012-11-06 22:39:00
3:59 PM,42.8,10.4,27,30.54,10.0,SW,12.7,18.4,N/A,,Clear,220,2012-11-06 22:59:00
4:19 PM,42.8,10.4,27,30.54,10.0,SW,13.8,-,N/A,,Clear,220,2012-11-06 23:19:00
4:39 PM,41.0,10.4,29,30.54,10.0,SW,10.4,-,N/A,,Clear,220,2012-11-06 23:39:00
4:59 PM,39.2,10.4,31,30.54,10.0,SW,12.7,-,N/A,,Clear,220,2012-11-06 23:59:00
5:19 PM,37.4,10.4,33,30.54,10.0,SW,11.5,-,N/A,,Clear,220,2012-11-07 00:19:00
5:39 PM,37.4,10.4,33,30.54,10.0,WSW,12.7,-,N/A,,Clear,240,2012-11-07 00:39:00
5:59 PM,35.6,10.4,35,30.54,10.0,SW,13.8,-,N/A,,Clear,230,2012-11-07 00:59:00
6:19 PM,35.6,10.4,35,30.54,10.0,SW,11.5,-,N/A,,Clear,230,2012-11-07 01:19:00
6:39 PM,35.6,10.4,35,30.55,10.0,SW,10.4,-,N/A,,Clear,220,2012-11-07 01:39:00
6:59 PM,35.6,10.4,35,30.55,10.0,SW,10.4,-,N/A,,Clear,220,2012-11-07 01:59:00
7:19 PM,35.6,10.4,35,30.55,10.0,SW,9.2,-,N/A,,Clear,220,2012-11-07 02:19:00
7:39 PM,35.6,10.4,35,30.55,10.0,SW,8.1,-,N/A,,Clear,220,2012-11-07 02:39:00
7:59 PM,35.6,10.4,35,30.55,10.0,SW,8.1,-,N/A,,Clear,220,2012-11-07 02:59:00
8:19 PM,35.6,10.4,35,30.55,10.0,SW,6.9,-,N/A,,Clear,220,2012-11-07 03:19:00
8:39 PM,35.6,10.4,35,30.55,10.0,SW,8.1,-,N/A,,Clear,220,2012-11-07 03:39:00
8:59 PM,35.6,10.4,35,30.55,10.0,SW,6.9,-,N/A,,Clear,220,2012-11-07 03:59:00
9:19 PM,35.6,10.4,35,30.56,10.0,SW,5.8,-,N/A,,Clear,230,2012-11-07 04:19:00
9:39 PM,35.6,12.2,38,30.56,10.0,SSW,5.8,-,N/A,,Clear,210,2012-11-07 04:39:00
9:59 PM,35.6,12.2,38,30.55,10.0,SSW,6.9,-,N/A,,Clear,210,2012-11-07 04:59:00
10:19 PM,35.6,12.2,38,30.55,10.0,SW,5.8,-,N/A,,Clear,220,2012-11-07 05:19:00
10:39 PM,35.6,12.2,38,30.55,10.0,SW,9.2,-,N/A,,Clear,220,2012-11-07 05:39:00
10:59 PM,35.6,12.2,38,30.55,10.0,SW,9.2,-,N/A,,Clear,220,2012-11-07 05:59:00
11:19 PM,35.6,12.2,38,30.55,10.0,SW,9.2,-,N/A,,Clear,220,2012-11-07 06:19:00
11:39 PM,35.6,10.4,35,30.54,10.0,SW,8.1,-,N/A,,Clear,220,2012-11-07 06:39:00
11:59 PM,35.6,12.2,38,30.54,10.0,SW,9.2,-,N/A,,Clear,220,2012-11-07 06:59:00